Location: Boiro
(42.6475°N, 8.8834°W)
Time: 11:32:42
(UTC+02:00)

SL-8 DEB - Pass Details

Date: 08 July 2022
Orbit: 890 x 1013 km, 83.1° (Epoch: 16 August)

Event Time Altitude Azimuth Distance (km) Brightness Sun altitude
Rises 01:22:52 0° 347° (NNW) 3,579 ? -22.4°
Reaches altitude 10° 01:25:26 10° 342° (NNW) 2,616 ? -22.6°
Maximum altitude 01:31:06 48° 270° (W) 1,163 ? -22.9°
Enters shadow 01:33:20 32° 217° (SW) 1,483 ? -23.0°
